Tracking 33198 objects as of 13-Feb-2026
HD Live streaming from Space Station
objects crossing your sky now

STARLINK-34662

Track STARLINK-34662 now!
10-day predictions
STARLINK-34662 is classified as:


NORAD ID: 64799
Int'l Code: 2025-150K
Perigee: 577.4 km
Apogee: 580.9 km
Inclination: 70.0 °
Period: 96.1 minutes
Semi major axis: 6950 km
RCS: Unknown
Launch date: July 16, 2025
Source: United States (US)
Launch site: AIR FORCE WESTERN TEST RANGE (AFWTR)
Your satellite tracking list
Your tracking list is empty




NASA's NSSDC Master Catalog

Two Line Element Set (TLE):
1 64799U 25150K   26043.87337142  .00010990  00000-0  92692-3 0  9998
2 64799  70.0021 196.8620 0002521 276.0460  84.0412 14.98351542 32808
Source of the keplerian elements: AFSPC